Погода в Шанхае

Китай     31°13′54″N   121°28′10″E
темп.,
°C
ветер,
м/с
пор.,
м/с
влажн.,
%
обл.,
%
осадки,
мм/ч
давл.,
гПа
погр.,
м
13 апреля, вт
вт1323:00+14сз26970 0.0 1018181
02:00+13сз279638 0.0 1017173
05:00+13ссз259797 0.0 1017134
08:00+16ссв25825 0.0 1019338
11:00+19св455390 0.0 1020998
14:00+17св5662100 0.0 1019793
17:00+14св5676100 0.0 1020703
20:00+12св4678100 0.0 1022684
14 апреля, ср
ср1423:00+12св3576100 0.0 1023665
02:00+11ссв3674100 0.0 1022622
05:00+10св376891 0.0 1022626
08:00+11св3656100 0.0 1023599
11:00+13св3544100 0.0 1024739
14:00+14св4537100 0.0 1022898
17:00+12всв3544100 0.0 1021642
20:00+11в255665 0.0 1021581
15 апреля, чт
чт1523:00+11вюв2561100 0.0 1021484
02:00+11вюв2664100 0.0 1019443
05:00+11юв3866100 0.0 1018536
08:00+12юв3765100 0.0 1019679
11:00+14юв3559100 0.0 1018780
14:00+16ююв4554100 0.0 1016888
17:00+15ююв4559100 0.0 1016767
20:00+13ююв2575100 0.0 1018331
16 апреля, пт
пт1623:00+12ююз25835 0.0 1018153
02:00+12юз23890 0.0 101777
05:00+11зюз23950 0.0 101873
08:00+16з24761 0.0 1018308
11:00+22сз235724 0.0 10181096
14:00+24сз2340100 0.0 10161883
17:00+22св125080 0.0 1017592
20:00+19ю3570100 0.0 1018165
17 апреля, сб
сб1723:00+17юз2574100 0.0 1019145
02:00+16зюз227393 0.0 101857
05:00
08:00+17с485099 0.0 1022482
11:00+18ссв6834100 0.0 1024921
14:00+17ссв5633100 0.0 10241015
17:00+14ссв4536100 0.0 1025945
20:00+12ссв3547100 0.0 1026538